Location: Pcim
(49.7500°N, 19.9670°E)
Time: 00:46:29
(UTC+02:00)

NOAA 18 - Visible Passes

Search period start: 25 April 2024 00:00
Search period end: 05 May 2024 00:00
Orbit: 838 x 858 km, 98.9° (Epoch: 24 April)

Date Brightness Start Highest point End Pass type
(mag) Time Alt. Az. Time Alt. Az. Time Alt. Az.
25 Apr 5.9 21:47:00 24° ESE 21:49:46 41° ENE 21:54:56 10° N visible
25 Apr 6.2 23:28:57 31° SW 23:30:27 36° W 23:35:34 10° NNW visible
26 Apr 6.2 21:34:17 20° ESE 21:37:23 34° ENE 21:42:19 10° N visible
26 Apr 5.9 23:16:14 35° SW 23:17:53 45° W 23:23:14 10° NNW visible
27 Apr 6.4 21:21:34 15° ESE 21:25:01 28° ENE 21:29:40 10° N visible
27 Apr 5.6 23:03:31 39° SSW 23:05:22 56° W 23:10:50 10° NNW visible
28 Apr 6.7 21:08:51 12° ESE 21:12:42 23° ENE 21:16:58 10° N visible
28 Apr 5.3 22:50:48 39° S 22:52:51 70° WSW 22:58:24 10° NNW visible
29 Apr 7.5 00:32:45 10° WSW 00:34:30 12° W 00:36:21 10° WNW visible
29 Apr 6.9 20:56:33 10° E 21:00:23 20° NE 21:04:12 10° N visible
29 Apr 5.2 22:38:05 38° SSE 22:40:21 86° WSW 22:45:56 10° NNW visible
30 Apr 7.3 00:20:02 13° WSW 00:21:48 15° W 00:24:53 10° NW visible
30 Apr 7.1 20:44:48 10° E 20:48:05 16° NE 20:51:22 10° NNE visible
30 Apr 5.2 22:25:21 34° SSE 22:27:53 77° ENE 22:33:25 10° NNW visible
01 May 7.1 00:07:19 16° WSW 00:09:08 19° W 00:12:59 10° NW visible
01 May 7.2 20:33:14 10° ENE 20:35:48 13° NE 20:38:22 10° NNE visible
01 May 5.4 22:12:39 29° SE 22:15:26 63° ENE 22:20:54 10° N visible
01 May 6.8 23:54:35 20° WSW 23:56:30 23° W 00:00:53 10° NW visible
02 May 5.6 21:59:56 25° SE 22:03:00 51° ENE 22:08:21 10° N visible
02 May 6.6 23:41:52 23° SW 23:43:52 29° W 23:48:40 10° NW visible
03 May 5.9 21:47:12 20° ESE 21:50:35 41° ENE 21:55:45 10° N visible
03 May 6.3 23:29:10 27° SW 23:31:17 36° W 23:36:22 10° NNW visible
04 May 6.2 21:34:29 16° ESE 21:38:12 34° ENE 21:43:08 10° N visible
04 May 5.9 23:16:26 30° SSW 23:18:43 45° W 23:24:01 10° NNW visible
